Time,TemperatureF,DewpointF,PressureIn,WindDirection,WindDirectionDegrees,WindSpeedMPH,WindSpeedGustMPH,Humidity,HourlyPrecipIn,Conditions,Clouds,dailyrainin,SolarRadiationWatts/m^2,SoftwareType,DateUTC
2013-01-18 00:02:00,36.0,31.0,-100.00,NW,324,5.0,8.0,83,0.00,,,1.28,0.000000,,2013-01-18 05:02:00,
2013-01-18 00:22:00,36.0,31.0,-100.00,NW,324,5.0,8.0,83,0.00,,,1.28,0.000000,,2013-01-18 05:22:00,
2013-01-18 00:33:00,36.0,31.0,-100.00,NW,324,5.0,8.0,83,0.00,,,1.28,0.000000,,2013-01-18 05:33:00,
2013-01-18 00:43:00,36.0,31.0,-100.00,NW,324,5.0,8.0,83,0.00,,,1.28,0.000000,,2013-01-18 05:43:00,
2013-01-18 00:53:00,36.0,31.0,-100.00,NW,324,5.0,8.0,83,0.00,,,1.28,0.000000,,2013-01-18 05:53:00,
2013-01-18 01:02:00,36.0,30.0,-100.00,NNW,335,6.0,9.0,78,0.00,,,1.25,0.000000,,2013-01-18 06:02:00,
2013-01-18 01:33:00,36.0,30.0,-100.00,NNW,335,6.0,9.0,78,0.00,,,1.25,0.000000,,2013-01-18 06:33:00,
2013-01-18 01:43:00,36.0,30.0,-100.00,NNW,335,6.0,9.0,78,0.00,,,1.25,0.000000,,2013-01-18 06:43:00,
2013-01-18 01:53:00,36.0,30.0,-100.00,NNW,335,6.0,9.0,78,0.00,,,1.25,0.000000,,2013-01-18 06:53:00,
2013-01-18 02:02:00,33.0,30.0,-100.00,SW,219,2.0,7.0,90,0.00,,,1.20,0.000000,,2013-01-18 07:02:00,
2013-01-18 02:33:00,33.0,30.0,-100.00,SW,219,2.0,7.0,90,0.00,,,1.20,0.000000,,2013-01-18 07:33:00,
2013-01-18 02:42:00,33.0,30.0,-100.00,SW,219,2.0,7.0,90,0.00,,,1.20,0.000000,,2013-01-18 07:42:00,
2013-01-18 02:52:00,33.0,30.0,-100.00,SW,219,2.0,7.0,90,0.00,,,1.20,0.000000,,2013-01-18 07:52:00,
2013-01-18 03:02:00,34.0,29.0,-100.00,NW,309,2.0,6.0,81,0.00,,,1.10,0.000000,,2013-01-18 08:02:00,
2013-01-18 03:22:00,34.0,29.0,-100.00,NW,309,2.0,6.0,81,0.00,,,1.10,0.000000,,2013-01-18 08:22:00,
2013-01-18 03:33:00,34.0,29.0,-100.00,NW,309,2.0,6.0,81,0.00,,,1.10,0.000000,,2013-01-18 08:33:00,
2013-01-18 03:43:00,34.0,29.0,-100.00,NW,309,2.0,6.0,81,0.00,,,1.10,0.000000,,2013-01-18 08:43:00,
2013-01-18 03:53:00,34.0,29.0,-100.00,NW,309,2.0,6.0,81,0.00,,,1.10,0.000000,,2013-01-18 08:53:00,
2013-01-18 04:02:00,33.0,27.0,-100.00,SW,222,2.0,5.0,79,0.00,,,1.04,0.000000,,2013-01-18 09:02:00,
2013-01-18 04:22:00,33.0,27.0,-100.00,SW,222,2.0,5.0,79,0.00,,,1.04,0.000000,,2013-01-18 09:22:00,
2013-01-18 04:33:00,33.0,27.0,-100.00,SW,222,2.0,5.0,79,0.00,,,1.04,0.000000,,2013-01-18 09:33:00,
2013-01-18 04:43:00,33.0,27.0,-100.00,SW,222,2.0,5.0,79,0.00,,,1.04,0.000000,,2013-01-18 09:43:00,
2013-01-18 04:53:00,33.0,27.0,-100.00,SW,222,2.0,5.0,79,0.00,,,1.04,0.000000,,2013-01-18 09:53:00,
2013-01-18 05:02:00,33.0,27.0,-100.00,NW,320,4.0,5.0,77,0.00,,,1.01,0.000000,,2013-01-18 10:02:00,
2013-01-18 05:22:00,33.0,27.0,-100.00,NW,320,4.0,5.0,77,0.00,,,1.01,0.000000,,2013-01-18 10:22:00,
2013-01-18 05:33:00,33.0,27.0,-100.00,NW,320,4.0,5.0,77,0.00,,,1.01,0.000000,,2013-01-18 10:33:00,
2013-01-18 05:43:00,33.0,27.0,-100.00,NW,320,4.0,5.0,77,0.00,,,1.01,0.000000,,2013-01-18 10:43:00,
2013-01-18 05:53:00,33.0,27.0,-100.00,NW,320,4.0,5.0,77,0.00,,,1.01,0.000000,,2013-01-18 10:53:00,
2013-01-18 06:02:00,32.0,26.0,-100.00,NW,322,4.0,5.0,78,0.00,,,0.94,0.000000,,2013-01-18 11:02:00,
2013-01-18 06:23:00,32.0,26.0,-100.00,NW,322,4.0,5.0,78,0.00,,,0.94,0.000000,,2013-01-18 11:23:00,
2013-01-18 06:33:00,32.0,26.0,-100.00,NW,322,4.0,5.0,78,0.00,,,0.94,0.000000,,2013-01-18 11:33:00,
2013-01-18 06:43:00,32.0,26.0,-100.00,NW,322,4.0,5.0,78,0.00,,,0.94,0.000000,,2013-01-18 11:43:00,
2013-01-18 06:53:00,32.0,26.0,-100.00,NW,322,4.0,5.0,78,0.00,,,0.94,0.000000,,2013-01-18 11:53:00,
2013-01-18 07:02:00,32.0,25.0,-100.00,NNW,331,4.0,6.0,74,0.00,,,0.94,0.000000,,2013-01-18 12:02:00,
2013-01-18 07:33:00,32.0,25.0,-100.00,NNW,331,4.0,6.0,74,0.00,,,0.94,0.000000,,2013-01-18 12:33:00,
2013-01-18 07:43:00,32.0,25.0,-100.00,NNW,331,4.0,6.0,74,0.00,,,0.94,0.000000,,2013-01-18 12:43:00,
2013-01-18 07:53:00,32.0,25.0,-100.00,NNW,331,4.0,6.0,74,0.00,,,0.94,0.000000,,2013-01-18 12:53:00,
2013-01-18 08:02:00,31.0,26.0,-100.00,NW,324,3.0,5.0,82,0.00,,,0.86,2.000000,,2013-01-18 13:02:00,
2013-01-18 08:33:00,31.0,26.0,-100.00,NW,324,3.0,5.0,82,0.00,,,0.86,2.000000,,2013-01-18 13:33:00,
2013-01-18 08:43:00,31.0,26.0,-100.00,NW,324,3.0,5.0,82,0.00,,,0.86,2.000000,,2013-01-18 13:43:00,
2013-01-18 08:53:00,31.0,26.0,-100.00,NW,324,3.0,5.0,82,0.00,,,0.86,2.000000,,2013-01-18 13:53:00,
2013-01-18 09:02:00,34.0,27.0,-100.00,WNW,282,2.0,6.0,75,0.01,,,0.84,24.000000,,2013-01-18 14:02:00,
2013-01-18 09:34:00,34.0,27.0,-100.00,WNW,282,2.0,6.0,75,0.01,,,0.84,24.000000,,2013-01-18 14:34:00,
2013-01-18 09:43:00,34.0,27.0,-100.00,WNW,282,2.0,6.0,75,0.01,,,0.84,24.000000,,2013-01-18 14:43:00,
2013-01-18 09:53:00,34.0,27.0,-100.00,WNW,282,2.0,6.0,75,0.01,,,0.84,24.000000,,2013-01-18 14:53:00,
2013-01-18 10:02:00,37.0,26.0,-100.00,NW,319,3.0,6.0,64,0.00,,,0.73,45.000000,,2013-01-18 15:02:00,
2013-01-18 10:34:00,37.0,26.0,-100.00,NW,319,3.0,6.0,64,0.00,,,0.73,45.000000,,2013-01-18 15:34:00,
2013-01-18 10:43:00,37.0,26.0,-100.00,NW,319,3.0,6.0,64,0.00,,,0.73,45.000000,,2013-01-18 15:43:00,
2013-01-18 10:54:00,37.0,26.0,-100.00,NW,319,3.0,6.0,64,0.00,,,0.73,45.000000,,2013-01-18 15:54:00,
2013-01-18 11:02:00,43.0,27.0,-100.00,NW,313,3.0,4.0,53,0.00,,,0.36,114.000000,,2013-01-18 16:02:00,
2013-01-18 11:23:00,43.0,27.0,-100.00,NW,313,3.0,4.0,53,0.00,,,0.36,114.000000,,2013-01-18 16:23:00,
2013-01-18 11:33:00,43.0,27.0,-100.00,NW,313,3.0,4.0,53,0.00,,,0.36,114.000000,,2013-01-18 16:33:00,
2013-01-18 11:43:00,43.0,27.0,-100.00,NW,313,3.0,4.0,53,0.00,,,0.36,114.000000,,2013-01-18 16:43:00,
2013-01-18 11:53:00,43.0,27.0,-100.00,NW,313,3.0,4.0,53,0.00,,,0.36,114.000000,,2013-01-18 16:53:00,
2013-01-18 12:02:00,50.0,25.0,-100.00,WNW,284,2.0,5.0,38,0.00,,,0.24,367.000000,,2013-01-18 17:02:00,
2013-01-18 12:34:00,50.0,25.0,-100.00,WNW,284,2.0,5.0,38,0.00,,,0.24,367.000000,,2013-01-18 17:34:00,
2013-01-18 12:43:00,50.0,25.0,-100.00,WNW,284,2.0,5.0,38,0.00,,,0.24,367.000000,,2013-01-18 17:43:00,
2013-01-18 12:53:00,50.0,25.0,-100.00,WNW,284,2.0,5.0,38,0.00,,,0.24,367.000000,,2013-01-18 17:53:00,
2013-01-18 13:02:00,53.0,22.0,-100.00,NW,321,3.0,5.0,30,0.00,,,0.13,561.000000,,2013-01-18 18:02:00,
2013-01-18 13:34:00,53.0,22.0,-100.00,NW,321,3.0,5.0,30,0.00,,,0.13,561.000000,,2013-01-18 18:34:00,
2013-01-18 13:43:00,53.0,22.0,-100.00,NW,321,3.0,5.0,30,0.00,,,0.13,561.000000,,2013-01-18 18:43:00,
2013-01-18 13:53:00,53.0,22.0,-100.00,NW,321,3.0,5.0,30,0.00,,,0.13,561.000000,,2013-01-18 18:53:00,
2013-01-18 14:02:00,55.0,23.0,-100.00,NW,304,3.0,5.0,29,0.00,,,-99.99,632.000000,,2013-01-18 19:02:00,
2013-01-18 14:33:00,55.0,23.0,-100.00,NW,304,3.0,5.0,29,0.00,,,-99.99,632.000000,,2013-01-18 19:33:00,
2013-01-18 14:43:00,55.0,23.0,-100.00,NW,304,3.0,5.0,29,0.00,,,-99.99,632.000000,,2013-01-18 19:43:00,
2013-01-18 14:53:00,55.0,23.0,-100.00,NW,304,3.0,5.0,29,0.00,,,-99.99,632.000000,,2013-01-18 19:53:00,
2013-01-18 15:02:00,59.0,28.0,-100.00,WNW,294,2.0,4.0,31,0.00,,,-99.99,553.000000,,2013-01-18 20:02:00,
2013-01-18 15:33:00,59.0,28.0,-100.00,WNW,294,2.0,4.0,31,0.00,,,-99.99,553.000000,,2013-01-18 20:33:00,
2013-01-18 15:43:00,59.0,28.0,-100.00,WNW,294,2.0,4.0,31,0.00,,,-99.99,553.000000,,2013-01-18 20:43:00,
2013-01-18 15:53:00,59.0,28.0,-100.00,WNW,294,2.0,4.0,31,0.00,,,-99.99,553.000000,,2013-01-18 20:53:00,
2013-01-18 16:02:00,55.0,26.0,-100.00,SW,232,2.0,6.0,33,0.00,,,0.06,418.000000,,2013-01-18 21:02:00,
2013-01-18 16:33:00,55.0,26.0,-100.00,SW,232,2.0,6.0,33,0.00,,,0.06,418.000000,,2013-01-18 21:33:00,
2013-01-18 16:43:00,55.0,26.0,-100.00,SW,232,2.0,6.0,33,0.00,,,0.06,418.000000,,2013-01-18 21:43:00,
2013-01-18 16:53:00,55.0,26.0,-100.00,SW,232,2.0,6.0,33,0.00,,,0.06,418.000000,,2013-01-18 21:53:00,
2013-01-18 17:02:00,51.0,26.0,-100.00,WSW,241,2.0,5.0,37,0.00,,,0.05,144.000000,,2013-01-18 22:02:00,
2013-01-18 17:33:00,51.0,26.0,-100.00,WSW,241,2.0,5.0,37,0.00,,,0.05,144.000000,,2013-01-18 22:33:00,
2013-01-18 17:43:00,51.0,26.0,-100.00,WSW,241,2.0,5.0,37,0.00,,,0.05,144.000000,,2013-01-18 22:43:00,
2013-01-18 17:53:00,51.0,26.0,-100.00,WSW,241,2.0,5.0,37,0.00,,,0.05,144.000000,,2013-01-18 22:53:00,
2013-01-18 18:02:00,48.0,25.0,-100.00,SSE,156,1.0,5.0,40,0.00,,,0.03,10.000000,,2013-01-18 23:02:00,
2013-01-18 18:23:00,48.0,25.0,-100.00,SSE,156,1.0,5.0,40,0.00,,,0.03,10.000000,,2013-01-18 23:23:00,
2013-01-18 18:33:00,48.0,25.0,-100.00,SSE,156,1.0,5.0,40,0.00,,,0.03,10.000000,,2013-01-18 23:33:00,
2013-01-18 18:43:00,48.0,25.0,-100.00,SSE,156,1.0,5.0,40,0.00,,,0.03,10.000000,,2013-01-18 23:43:00,
2013-01-18 18:53:00,48.0,25.0,-100.00,SSE,156,1.0,5.0,40,0.00,,,0.03,10.000000,,2013-01-18 23:53:00,
2013-01-18 19:02:00,44.0,23.0,-100.00,WNW,296,2.0,3.0,43,0.00,,,0.02,0.000000,,2013-01-19 00:02:00,
2013-01-18 19:23:00,44.0,23.0,-100.00,WNW,296,2.0,3.0,43,0.00,,,0.02,0.000000,,2013-01-19 00:23:00,
2013-01-18 19:33:00,44.0,23.0,-100.00,WNW,296,2.0,3.0,43,0.00,,,0.02,0.000000,,2013-01-19 00:33:00,
2013-01-18 19:43:00,44.0,23.0,-100.00,WNW,296,2.0,3.0,43,0.00,,,0.02,0.000000,,2013-01-19 00:43:00,
2013-01-18 19:53:00,44.0,23.0,-100.00,WNW,296,2.0,3.0,43,0.00,,,0.02,0.000000,,2013-01-19 00:53:00,
2013-01-18 20:02:00,42.0,31.0,-100.00,NW,326,2.0,3.0,65,0.00,,,0.01,0.000000,,2013-01-19 01:02:00,
2013-01-18 20:23:00,42.0,31.0,-100.00,NW,326,2.0,3.0,65,0.00,,,0.01,0.000000,,2013-01-19 01:23:00,
2013-01-18 20:33:00,42.0,31.0,-100.00,NW,326,2.0,3.0,65,0.00,,,0.01,0.000000,,2013-01-19 01:33:00,
2013-01-18 20:43:00,42.0,31.0,-100.00,NW,326,2.0,3.0,65,0.00,,,0.01,0.000000,,2013-01-19 01:43:00,
2013-01-18 20:53:00,42.0,31.0,-100.00,NW,326,2.0,3.0,65,0.00,,,0.01,0.000000,,2013-01-19 01:53:00,
2013-01-18 21:02:00,38.0,27.0,-100.00,SE,139,1.0,2.0,65,0.00,,,0.01,0.000000,,2013-01-19 02:02:00,
2013-01-18 21:33:00,38.0,27.0,-100.00,SE,139,1.0,2.0,65,0.00,,,0.01,0.000000,,2013-01-19 02:33:00,
2013-01-18 21:43:00,38.0,27.0,-100.00,SE,139,1.0,2.0,65,0.00,,,0.01,0.000000,,2013-01-19 02:43:00,
2013-01-18 21:53:00,38.0,27.0,-100.00,SE,139,1.0,2.0,65,0.00,,,0.01,0.000000,,2013-01-19 02:53:00,
2013-01-18 22:02:00,36.0,30.0,-100.00,North,9,2.0,3.0,78,0.00,,,0.01,0.000000,,2013-01-19 03:02:00,
2013-01-18 22:33:00,36.0,30.0,-100.00,North,9,2.0,3.0,78,0.00,,,0.01,0.000000,,2013-01-19 03:33:00,
2013-01-18 22:44:00,36.0,30.0,-100.00,North,9,2.0,3.0,78,0.00,,,0.01,0.000000,,2013-01-19 03:44:00,
2013-01-18 22:53:00,36.0,30.0,-100.00,North,9,2.0,3.0,78,0.00,,,0.01,0.000000,,2013-01-19 03:53:00,
2013-01-18 23:02:00,34.0,30.0,-100.00,North,355,2.0,3.0,86,0.00,,,0.01,0.000000,,2013-01-19 04:02:00,
2013-01-18 23:33:00,34.0,30.0,-100.00,North,355,2.0,3.0,86,0.00,,,0.01,0.000000,,2013-01-19 04:33:00,
2013-01-18 23:43:00,34.0,30.0,-100.00,North,355,2.0,3.0,86,0.00,,,0.01,0.000000,,2013-01-19 04:43:00,
2013-01-18 23:53:00,34.0,30.0,-100.00,North,355,2.0,3.0,86,0.00,,,0.01,0.000000,,2013-01-19 04:53:00,